This is the latest recevied weather packets stored in our database for station/object KD0RII. If no packets are shown the sender has not sent any weather packets the latest 10 day(s).
| Time | Temp. | Humidity | Pressure | Rain* | Wind** | Luminosity | Snow |
|---|---|---|---|---|---|---|---|
| 1778118892 | 7.78° C | 69% | 1019.3 hPa | 0 mm | - | 0 W/m² | - |
| 1778118589 | 7.78° C | 67% | 1019.3 hPa | 0 mm | - | 0 W/m² | - |
| 1778118286 | 8.33° C | 65% | 1019.3 hPa | 0 mm | - | 0 W/m² | - |
| 1778117981 | 8.89° C | 64% | 1019.4 hPa | 0 mm | - | 0 W/m² | - |
| 1778117678 | 9.44° C | 61% | 1019.2 hPa | 0 mm | - | 0 W/m² | - |
| 1778117375 | 10° C | 60% | 1019.2 hPa | 0 mm | - | 1 W/m² | - |
| 1778117072 | 10° C | 58% | 1019.1 hPa | 0 mm | - | 1 W/m² | - |
| 1778116769 | 10.56° C | 56% | 1019.1 hPa | 0 mm | - | 3 W/m² | - |
| 1778116466 | 11.11° C | 53% | 1019.3 hPa | 0 mm | - | 4 W/m² | - |
| 1778116165 | 11.67° C | 52% | 1019 hPa | 0 mm | - | 7 W/m² | - |
| 1778115861 | 11.67° C | 51% | 1019.1 hPa | 0 mm | - | 10 W/m² | - |
| 1778115558 | 12.22° C | 49% | 1019.1 hPa | 0 mm | - | 13 W/m² | - |
| 1778115255 | 12.78° C | 48% | 1018.9 hPa | 0 mm | - | 16 W/m² | - |
| 1778114952 | 13.33° C | 47% | 1019.1 hPa | 0 mm | - | 18 W/m² | - |
| 1778114648 | 13.89° C | 45% | 1019 hPa | 0 mm | - | 20 W/m² | - |
| 1778114346 | 14.44° C | 43% | 1019 hPa | 0 mm | - | 23 W/m² | - |
| 1778114041 | 15° C | 44% | 1018.8 hPa | 0 mm | - | 25 W/m² | - |
| 1778113736 | 15° C | 42% | 1018.7 hPa | 0 mm | - | 43 W/m² | - |
| 1778113433 | 15° C | 40% | 1018.9 hPa | 0 mm | - | 31 W/m² | - |
| 1778113130 | 15° C | 39% | 1018.7 hPa | 0 mm | - | 32 W/m² | - |
| 1778112827 | 15° C | 40% | 1018.8 hPa | 0 mm | - | 55 W/m² | - |
| 1778112523 | 15.56° C | 41% | 1018.7 hPa | 0 mm | - | 39 W/m² | - |
| 1778112219 | 15° C | 40% | 1018.9 hPa | 0 mm | - | 38 W/m² | - |
| 1778111916 | 15° C | 38% | 1018.8 hPa | 0 mm | - | 58 W/m² | - |
| 1778111613 | 15.56° C | 38% | 1018.9 hPa | 0 mm | - | 76 W/m² | - |
* Rain latest hour (hover to see other rain measurements)
** Current wind speed in m/s (hover to see current wind gust speed)